IW2HUZ-13 Weather Reports


time (UTC)temp
F
wind
direction
speed
knots
gust
knots
rain 1hr
in
rain 24hr
in
rain mn
in
humidity
%
barometer
mb
20260504110505 53 108 1.7 3.5 0.00 0.00 0.00 64 1012.3
20260504100505 55 112 0.9 1.7 0.00 0.00 0.00 61 1012.7
20260504082005 51 154 0.9 5.2 0.00 0.00 0.00 60 1012.5
20260504080505 50 141 1.7 3.5 0.00 0.00 0.00 58 1012.4
20260504050505 50 135 0.0 3.5 0.00 0.00 0.00 64 1011.3
20260504050005 49 152 0.0 3.5 0.00 0.00 0.00 63 1011.7
20260504045505 49 156 1.7 5.2 0.00 0.00 0.00 63 1011.3
20260504045005 49 155 1.7 5.2 0.00 0.00 0.00 66 1011.2
20260504044506 47 156 3.5 5.2 0.00 0.00 0.00 49 1011.2
20260504043505 47 154 3.5 5.2 0.00 0.00 0.00 49 1011.1
20260504043005 48 145 3.5 3.5 0.00 0.00 0.00 51 1011.0
20260504042505 48 127 1.7 1.7 0.00 0.00 0.00 69 1011.0
20260504042006 49 120 1.7 1.7 0.00 0.00 0.00 70 1011.3
20260504041505 49 116 1.7 3.5 0.00 0.00 0.00 69 1011.0
20260504041005 50 114 1.7 3.5 0.00 0.00 0.00 66 1011.3
20260504040506 50 0 0.0 0.0 0.00 0.00 0.00 59 1011.1
20260504040005 50 112 0.0 1.7 0.00 0.00 0.00 56 1011.2
20260504035505 50 111 0.0 1.7 0.00 0.00 0.00 57 1011.2
20260504034006 50 112 1.7 3.5 0.00 0.00 0.00 65 1011.2
20260504033005 50 112 0.0 3.5 0.00 0.00 0.00 62 1011.2
20260504032506 51 112 1.7 3.5 0.00 0.00 0.00 61 1011.6
20260504032005 51 112 2.6 3.5 0.00 0.00 0.00 59 1011.2
20260504031005 51 112 3.5 3.5 0.00 0.00 0.00 58 1011.4
20260504030505 51 116 2.6 3.5 0.00 0.00 0.00 59 1011.4
20260504025005 51 144 1.7 1.7 0.00 0.00 0.00 55 1011.5
20260504024506 51 155 1.7 1.7 0.00 0.00 0.00 54 1011.5
20260504024005 51 158 1.7 1.7 0.00 0.00 0.00 55 1011.5
20260504023505 50 158 0.0 1.7 0.00 0.00 0.00 60 1011.5
20260504023005 50 158 0.0 1.7 0.00 0.00 0.00 59 1011.5
20260504022505 50 0 0.0 0.0 0.00 0.00 0.00 64 1011.5
20260504022005 50 158 0.0 1.7 0.00 0.00 0.00 62 1011.5
20260504021005 51 146 0.9 1.7 0.00 0.00 0.00 56 1011.7
20260504020006 51 0 0.0 0.0 0.00 0.00 0.00 61 1011.8
20260504015505 50 0 0.0 0.0 0.00 0.00 0.00 56 1011.6
20260504015006 50 0 0.0 0.0 0.00 0.00 0.00 58 1011.4
20260504014505 50 0 0.0 0.0 0.00 0.00 0.00 56 1011.7
20260504013505 50 0 0.0 0.0 0.00 0.00 0.00 56 1011.7
20260504013005 50 0 0.0 0.0 0.00 0.00 0.00 59 1011.7
20260504012506 50 135 0.0 1.7 0.00 0.00 0.00 57 1011.5
20260504012005 50 135 0.0 1.7 0.00 0.00 0.00 56 1011.6
20260504011505 51 135 0.0 1.7 0.00 0.00 0.00 58 1011.8
20260504011006 51 135 1.7 1.7 0.00 0.00 0.00 55 1011.8
20260504010506 50 135 0.9 1.7 0.00 0.00 0.00 58 1011.5
20260504010005 50 135 0.9 1.7 0.00 0.00 0.00 63 1011.8
20260504005505 50 135 0.0 1.7 0.00 0.00 0.00 64 1011.9
20260504005006 50 135 0.9 1.7 0.00 0.00 0.00 65 1011.7
20260504004505 50 112 0.0 1.7 0.00 0.00 0.00 62 1012.0
20260504003506 50 112 1.7 3.5 0.00 0.00 0.00 64 1012.0
20260504003005 50 0 0.0 0.0 0.00 0.00 0.00 65 1012.1
20260504002505 50 0 0.0 0.0 0.00 0.00 0.00 65 1011.9
20260504001505 50 174 0.0 1.7 0.00 0.00 0.00 66 1012.0
20260504001005 50 158 0.0 1.7 0.00 0.00 0.00 66 1012.3
20260504000506 50 158 0.9 1.7 0.00 0.00 0.00 65 1012.3
20260503235505 50 114 0.0 1.7 0.00 0.00 0.00 65 1012.2
20260503235006 51 111 0.9 1.7 0.00 0.00 0.00 63 1012.4
20260503234505 51 111 1.7 1.7 0.00 0.00 0.00 63 1012.5
20260503234006 51 111 1.7 1.7 0.00 0.00 0.00 63 1012.4
20260503233505 51 111 1.7 1.7 0.00 0.00 0.00 63 1012.4
20260503233006 51 111 1.7 1.7 0.00 0.00 0.00 64 1012.5
20260503232505 51 107 1.7 3.5 0.00 0.00 0.00 64 1012.5
20260503232005 51 107 1.7 3.5 0.00 0.00 0.00 65 1012.5
20260503231505 51 118 1.7 3.5 0.00 0.00 0.00 64 1012.6
20260503231005 51 130 1.7 1.7 0.00 0.00 0.00 60 1012.5
20260503230505 51 135 1.7 1.7 0.00 0.00 0.00 60 1012.5
20260503230005 51 135 1.7 1.7 0.00 0.00 0.00 57 1012.6
20260503225505 51 135 1.7 1.7 0.00 0.00 0.00 56 1012.7
20260503225005 51 0 0.0 0.0 0.00 0.00 0.00 59 1012.6
20260503224505 51 181 0.0 1.7 0.00 0.00 0.00 59 1012.5
20260503224006 51 181 0.0 1.7 0.00 0.00 0.00 58 1012.4
20260503223006 51 192 0.9 1.7 0.00 0.00 0.00 58 1012.6
20260503221505 51 195 0.9 1.7 0.00 0.00 0.00 57 1012.3
20260503221006 51 203 1.7 1.7 0.00 0.00 0.00 57 1012.7
20260503220010 51 0 0.0 0.0 0.00 0.00 0.00 59 1012.5
20260503215505 50 0 0.0 0.0 0.00 0.00 0.00 62 1012.6
20260503215006 50 0 0.0 0.0 0.00 0.00 0.00 64 1012.4
20260503214505 50 0 0.0 0.0 0.00 0.00 0.00 65 1012.6
20260503213506 50 0 0.0 0.0 0.00 0.00 0.00 68 1012.5
20260503213005 50 0 0.0 0.0 0.00 0.00 0.00 68 1012.5
20260503212505 50 203 0.0 1.7 0.00 0.00 0.00 69 1012.6
20260503212005 50 203 0.0 1.7 0.00 0.00 0.00 69 1012.7
20260503211506 50 203 1.7 1.7 0.00 0.00 0.00 69 1012.5
20260503211006 50 203 0.9 1.7 0.00 0.00 0.00 70 1012.4
20260503210505 50 203 0.9 1.7 0.00 0.00 0.00 69 1012.5
20260503210006 50 197 1.7 1.7 0.00 0.00 0.00 69 1012.6
20260503205505 50 190 0.9 1.7 0.00 0.00 0.00 68 1012.6
20260503205006 50 181 0.0 1.7 0.00 0.00 0.00 69 1012.4
20260503204005 50 169 0.0 1.7 0.00 0.00 0.00 68 1012.5
20260503203505 50 148 0.0 1.7 0.00 0.00 0.00 68 1012.3
20260503203005 50 144 0.0 1.7 0.00 0.00 0.00 67 1012.6
20260503202505 50 168 0.0 3.5 0.00 0.00 0.00 66 1012.6
20260503202005 51 183 1.7 3.5 0.00 0.00 0.00 66 1012.4
20260503201506 51 182 0.9 3.5 0.00 0.00 0.00 66 1012.3
20260503201005 51 185 0.0 3.5 0.00 0.00 0.00 66 1012.4
20260503200505 51 172 1.7 3.5 0.00 0.00 0.00 66 1012.5
20260503200006 51 157 0.9 3.5 0.00 0.00 0.00 66 1012.4
20260503195006 51 146 1.7 3.5 0.00 0.00 0.00 65 1012.3
20260503194505 51 145 1.7 3.5 0.00 0.00 0.00 65 1012.5
20260503194006 51 146 0.9 3.5 0.00 0.00 0.00 64 1012.5
20260503193505 51 147 2.6 3.5 0.00 0.00 0.00 63 1011.6
20260503192506 51 143 1.7 3.5 0.00 0.00 0.00 65 1012.3
20260503192005 51 133 1.7 3.5 0.00 0.00 0.00 64 1012.2
20260503191506 51 133 1.7 3.5 0.00 0.00 0.00 65 1012.0
20260503191006 51 139 0.9 1.7 0.00 0.00 0.00 65 1012.1
20260503190506 51 145 0.0 3.5 0.00 0.00 0.00 65 1012.0
20260503190005 51 143 1.7 3.5 0.00 0.00 0.00 63 1012.1
20260503185506 51 142 2.6 3.5 0.00 0.00 0.00 63 1012.1
20260503185005 51 132 1.7 5.2 0.00 0.00 0.00 66 1012.0
20260503184505 51 118 2.6 5.2 0.00 0.00 0.00 66 1011.4
20260503184006 51 116 3.5 5.2 0.00 0.00 0.00 65 1012.2
20260503183505 51 117 3.5 3.5 0.00 0.00 0.00 63 1012.0
20260503183005 51 127 2.6 5.2 0.00 0.00 0.00 62 1012.1
20260503182506 52 134 3.5 5.2 0.00 0.00 0.00 62 1012.2
20260503182006 51 132 2.6 3.5 0.00 0.00 0.00 65 1011.9
20260503181506 52 133 2.6 3.5 0.00 0.00 0.00 64 1012.1
20260503181005 51 138 1.7 3.5 0.00 0.00 0.00 65 1012.2
20260503180505 51 145 1.7 3.5 0.00 0.00 0.00 69 1012.0
20260503175505 51 140 1.7 5.2 0.00 0.00 0.00 69 1012.1
20260503175006 51 136 1.7 3.5 0.00 0.00 0.00 69 1012.1
20260503174512 52 137 3.5 3.5 0.00 0.00 0.00 68 1012.0
20260503174006 52 131 1.7 3.5 0.00 0.00 0.00 68 1012.1
20260503173505 53 131 1.7 3.5 0.00 0.00 0.00 66 1012.0
20260503173005 52 137 1.7 3.5 0.00 0.00 0.00 62 1012.0
20260503172505 53 143 1.7 3.5 0.00 0.00 0.00 55 1012.0
20260503172006 53 0 0.0 0.0 0.00 0.00 0.00 61 1011.9
20260503171506 53 0 0.0 0.0 0.00 0.00 0.00 69 1012.0
20260503171006 53 0 0.0 0.0 0.00 0.00 0.00 67 1012.1
20260503170505 53 0 0.0 0.0 0.00 0.00 0.00 69 1011.9
20260503150506 54 100 0.9 3.5 0.00 0.00 0.00 64 1012.8
20260503131006 55 93 0.0 3.5 0.00 0.00 0.00 62 1012.8